ソーホー彗星

C/1996 X1 ( SOHO )

English version
Home page
Updated on September 29, 1997

---------------------------------------------------------------------

・ プロフィール

発見日 1996年12月11日
発見光度 8.0等より暗い
発見者 SOHO-LASCO coronagraphs

・ 軌道要素

T 1996 Dec. 12.09630 TT                                 Marsden
q   0.0050469            (2000.0)            P               Q
                   Peri.   58.89690     +0.15459029     -0.95365289
                   Node   333.69052     -0.98086649     -0.11684791
e   1.0            Incl.  144.37543     +0.11833331     +0.27729538
>From 8 observations 1996 Dec. 11.

・ 光度変化

        m1 = 19 + 5 logΔ + 10 log r

---------------------------------------------------------------------

軌道要素は Dr. Brian G. Marsden の計算によるもので、 M.P.E.C. 1997-K11 に掲載されたものです。
光度グラフはComet for Windowsで作成したものです。

---------------------------------------------------------------------

Copyright(C) Seiichi Yoshida (comet@aerith.net). All rights reserved.